This is the latest recevied weather packets stored in our database for station/object KE5YIM-13. If no packets are shown the sender has not sent any weather packets the latest 10 day(s).
| Time | Temp. | Humidity | Pressure | Rain* | Wind** | Luminosity | Snow |
|---|---|---|---|---|---|---|---|
| 1777590570 | 12.22° C | 96% | 1008.6 hPa | 0 mm | - | 15 W/m² | - |
| 1777590266 | 12.22° C | 96% | 1008.5 hPa | 0 mm | - | 18 W/m² | - |
| 1777589963 | 12.22° C | 96% | 1008.5 hPa | 0 mm | - | 23 W/m² | - |
| 1777589660 | 12.22° C | 96% | 1008.4 hPa | 0 mm | - | 26 W/m² | - |
| 1777589356 | 12.22° C | 96% | 1008.2 hPa | 0 mm | - | 34 W/m² | - |
| 1777589054 | 12.22° C | 96% | 1008.3 hPa | 0 mm | - | 33 W/m² | - |
| 1777588750 | 12.22° C | 96% | 1008.4 hPa | 1.27 mm | - | 49 W/m² | - |
| 1777588446 | 12.22° C | 96% | 1008.4 hPa | 1.27 mm | - | 75 W/m² | - |
| 1777588140 | 12.22° C | 96% | 1008.4 hPa | 0 mm | - | 57 W/m² | - |
| 1777587837 | 12.22° C | 95% | 1008.3 hPa | 0 mm | - | 36 W/m² | - |
| 1777587537 | 12.22° C | 95% | 1008.3 hPa | 0 mm | - | 43 W/m² | - |
| 1777587233 | 12.22° C | 95% | 1008.3 hPa | 1.78 mm | - | 49 W/m² | - |
| 1777586928 | 12.22° C | 94% | 1008.3 hPa | 6.1 mm | - | 43 W/m² | - |
| 1777586625 | 12.22° C | 92% | 1008.1 hPa | 8.89 mm | - | 23 W/m² | - |
| 1777586320 | 12.78° C | 91% | 1008.1 hPa | 7.87 mm | - | 20 W/m² | - |
| 1777586019 | 12.78° C | 90% | 1007.9 hPa | 7.87 mm | - | 13 W/m² | - |
| 1777585719 | 12.78° C | 89% | 1008 hPa | 3.56 mm | - | 19 W/m² | - |
| 1777585419 | 12.78° C | 87% | 1008 hPa | 0 mm | - | 37 W/m² | - |
| 1777585114 | 13.33° C | 86% | 1007.9 hPa | 0 mm | - | 55 W/m² | - |
| 1777584810 | 12.78° C | 86% | 1007.9 hPa | 0 mm | - | 51 W/m² | - |
| 1777584508 | 12.78° C | 85% | 1008 hPa | 0 mm | - | 30 W/m² | - |
| 1777584205 | 13.33° C | 85% | 1007.8 hPa | 0 mm | - | 54 W/m² | - |
| 1777583904 | 13.33° C | 85% | 1007.7 hPa | 0 mm | - | 68 W/m² | - |
| 1777583600 | 13.33° C | 85% | 1007.6 hPa | 0 mm | - | 56 W/m² | - |
| 1777583298 | 13.33° C | 85% | 1007.7 hPa | 0 mm | - | 74 W/m² | - |
* Rain latest hour (hover to see other rain measurements)
** Current wind speed in m/s (hover to see current wind gust speed)